Location: Владивосток
(43.1151°N, 131.8856°E)
Time: 12:22:01
(UTC+10:00)

CUBESAT XI-V - Visible Passes

Search period start: 26 June 2022 00:00
Search period end: 06 July 2022 00:00
Orbit: 666 x 692 km, 98.1° (Epoch: 25 June)

Date Brightness Start Highest point End Pass type
(mag) Time Alt. Az. Time Alt. Az. Time Alt. Az.
26 Jun ? 01:46:07 11° ESE 01:49:15 20° ENE 01:52:31 10° NNE visible
26 Jun ? 03:24:31 32° SSW 03:26:11 47° W 03:30:39 10° NNW visible
27 Jun ? 02:22:04 23° SE 02:24:28 41° ENE 02:28:48 10° N visible
27 Jun ? 04:00:27 18° WSW 04:01:55 21° W 04:05:24 10° NW visible
28 Jun ? 01:21:56 10° ENE 01:23:19 11° ENE 01:24:43 10° NE visible
28 Jun ? 02:58:01 36° SSE 02:59:54 87° WSW 03:04:32 10° NNW visible
29 Jun ? 01:55:34 14° ESE 01:58:25 23° ENE 02:02:03 10° NNE visible
29 Jun ? 03:33:57 29° SW 03:35:30 37° W 03:39:47 10° NNW visible
30 Jun ? 02:31:31 27° SE 02:33:42 50° ENE 02:38:10 10° N visible
30 Jun ? 04:09:55 15° WSW 04:11:16 17° W 04:14:15 10° NW visible
01 Jul ? 01:30:11 10° E 01:32:28 14° ENE 01:34:45 10° NNE visible
01 Jul ? 03:07:28 38° S 03:09:10 71° WSW 03:13:46 10° NNW visible
02 Jul ? 02:05:01 17° ESE 02:07:36 28° ENE 02:11:31 10° N visible
02 Jul ? 03:43:25 25° SW 03:44:48 30° W 03:48:52 10° NW visible
03 Jul ? 02:40:58 33° SE 02:42:56 63° ENE 02:47:28 10° N visible
03 Jul ? 04:19:22 12° WSW 04:20:37 14° W 04:22:55 10° WNW visible
04 Jul ? 01:38:44 10° ESE 01:41:36 17° ENE 01:44:28 10° NNE visible
04 Jul ? 03:16:55 38° SSW 03:18:26 56° W 03:22:58 10° NNW visible
05 Jul ? 02:14:28 21° ESE 02:16:47 34° ENE 02:20:56 10° N visible
05 Jul ? 03:52:52 22° WSW 03:54:07 25° W 03:57:53 10° NW visible
